BTK7066 WIBB-WIII

Flight info

Callsign BTK7066
Flight time 1h 20m
Altitude 35000
Route ISROR T5 BUNIK
Aircraft A320/M-SDE3FGHIRWY/LB1

Departure

Time 2026-05-04 14:37
Airport Sultan Syarif Kasim II International Airport / Roesmin Nurjadin AFB (WIBB)

Arrival

Time 2026-05-04 15:58
Airport Soekarno-Hatta International Airport (WIII)
Time Latitude Longitude Altitude Speed Heading
2026-05-04 14:18 0.46366 101.44683 125 ft 0 kts 92°
2026-05-04 14:29 0.46366 101.44676 124 ft 2 kts 91°
2026-05-04 14:29 0.46365 101.44636 124 ft 3 kts 83°
2026-05-04 14:30 0.46362 101.44616 125 ft 3 kts 73°
2026-05-04 14:30 0.46354 101.44598 125 ft 3 kts 50°
2026-05-04 14:30 0.46336 101.44588 125 ft 0 kts
2026-05-04 14:33 0.46357 101.44588 125 ft 3 kts
2026-05-04 14:34 0.46383 101.44559 128 ft 11 kts 274°
2026-05-04 14:34 0.46382 101.44482 125 ft 10 kts 275°
2026-05-04 14:34 0.46436 101.44462 129 ft 10 kts
2026-05-04 14:34 0.46521 101.44468 129 ft 14 kts 358°
2026-05-04 14:35 0.46635 101.44469 125 ft 19 kts
2026-05-04 14:35 0.46780 101.44475 130 ft 23 kts
2026-05-04 14:35 0.46947 101.44480 129 ft 25 kts
2026-05-04 14:35 0.47061 101.44472 124 ft 12 kts 343°
2026-05-04 14:36 0.47072 101.44497 124 ft 4 kts 170°
2026-05-04 14:36 0.47053 101.44490 124 ft 2 kts 204°
2026-05-04 14:36 0.47026 101.44481 128 ft 5 kts 188°
2026-05-04 14:36 0.46992 101.44480 128 ft 8 kts 181°
2026-05-04 14:37 0.46760 101.44472 130 ft 69 kts 182°
2026-05-04 14:37 0.46059 101.44451 125 ft 129 kts 182°
2026-05-04 14:37 0.45027 101.44432 318 ft 158 kts 181°
2026-05-04 14:37 0.43934 101.44396 898 ft 156 kts 184°
2026-05-04 14:38 0.42783 101.44342 1196 ft 176 kts 182°
2026-05-04 14:38 0.41493 101.44294 1469 ft 199 kts 181°
2026-05-04 14:38 0.40054 101.44437 1718 ft 221 kts 155°
2026-05-04 14:38 0.38784 101.45427 2040 ft 244 kts 131°
2026-05-04 14:39 0.37687 101.46825 2524 ft 263 kts 124°
2026-05-04 14:39 0.36627 101.48352 3286 ft 269 kts 124°
2026-05-04 14:39 0.35560 101.49884 4086 ft 274 kts 125°
2026-05-04 14:40 0.33262 101.52996 5702 ft 281 kts 128°
2026-05-04 14:40 0.32050 101.54556 6483 ft 285 kts 129°
2026-05-04 14:40 0.30827 101.56094 7228 ft 288 kts 129°
2026-05-04 14:40 0.29560 101.57670 7989 ft 291 kts 129°
2026-05-04 14:41 0.28280 101.59250 8756 ft 293 kts 129°
2026-05-04 14:41 0.26988 101.60847 9515 ft 296 kts 128°
2026-05-04 14:41 0.24328 101.64143 10329 ft 326 kts 128°
2026-05-04 14:42 0.21318 101.67882 10992 ft 355 kts 127°
2026-05-04 14:42 0.19886 101.69906 11617 ft 359 kts 123°
2026-05-04 14:42 0.18498 101.71998 12252 ft 361 kts 122°
2026-05-04 14:43 0.17129 101.74124 12894 ft 364 kts 122°
2026-05-04 14:43 0.15766 101.76266 13521 ft 367 kts 122°
2026-05-04 14:43 0.14403 101.78406 14083 ft 369 kts 122°
2026-05-04 14:43 0.13015 101.80578 14644 ft 372 kts 122°
2026-05-04 14:44 0.11601 101.82763 15163 ft 374 kts 122°
2026-05-04 14:44 0.10164 101.84954 15690 ft 377 kts 122°
2026-05-04 14:44 0.08731 101.87128 16208 ft 380 kts 122°
2026-05-04 14:44 0.07266 101.89349 16726 ft 382 kts 122°
2026-05-04 14:45 0.05797 101.91575 17221 ft 385 kts 122°
2026-05-04 14:45 0.04333 101.93794 17725 ft 388 kts 122°
2026-05-04 14:45 0.02845 101.96055 18215 ft 390 kts 122°
2026-05-04 14:45 0.01349 101.98335 18628 ft 393 kts 122°
2026-05-04 14:46 0.00356 101.99852 18898 ft 394 kts 122°
2026-05-04 14:46 -0.01154 102.02156 19308 ft 397 kts 122°
2026-05-04 14:46 -0.02671 102.04471 19722 ft 399 kts 122°
2026-05-04 14:46 -0.04695 102.07565 20261 ft 402 kts 122°
2026-05-04 14:47 -0.06234 102.09911 20655 ft 404 kts 122°
2026-05-04 14:47 -0.07261 102.11474 20921 ft 406 kts 122°
2026-05-04 14:47 -0.08821 102.13846 21319 ft 408 kts 122°
2026-05-04 14:47 -0.10384 102.16225 21712 ft 410 kts 122°
2026-05-04 14:48 -0.11959 102.18620 22089 ft 412 kts 122°
2026-05-04 14:48 -0.13522 102.20998 22472 ft 414 kts 122°
2026-05-04 14:48 -0.15121 102.23430 22858 ft 417 kts 122°
2026-05-04 14:48 -0.16703 102.25830 23221 ft 419 kts 122°
2026-05-04 14:49 -0.18310 102.28275 23571 ft 421 kts 122°
2026-05-04 14:49 -0.19921 102.30729 23873 ft 423 kts 122°
2026-05-04 14:49 -0.21540 102.33195 24172 ft 425 kts 122°
2026-05-04 14:49 -0.23169 102.35674 24476 ft 427 kts 122°
2026-05-04 14:50 -0.24782 102.38135 24765 ft 428 kts 122°
2026-05-04 14:50 -0.26421 102.40636 25050 ft 430 kts 122°
2026-05-04 14:50 -0.28069 102.43153 25320 ft 432 kts 122°
2026-05-04 14:50 -0.29706 102.45651 25589 ft 435 kts 122°
2026-05-04 14:51 -0.31375 102.48193 25860 ft 436 kts 122°
2026-05-04 14:51 -0.33051 102.50740 26135 ft 438 kts 122°
2026-05-04 14:51 -0.34735 102.53294 26404 ft 440 kts 122°
2026-05-04 14:51 -0.36403 102.55824 26677 ft 442 kts 122°
2026-05-04 14:52 -0.38100 102.58404 26951 ft 444 kts 122°
2026-05-04 14:52 -0.39800 102.60996 27219 ft 445 kts 122°
2026-05-04 14:52 -0.41480 102.63562 27474 ft 447 kts 122°
2026-05-04 14:52 -0.43192 102.66177 27730 ft 449 kts 122°
2026-05-04 14:53 -0.44912 102.68797 27985 ft 451 kts 122°
2026-05-04 14:53 -0.46625 102.71403 28226 ft 452 kts 122°
2026-05-04 14:53 -0.48360 102.74041 28457 ft 454 kts 122°
2026-05-04 14:53 -0.50103 102.76692 28686 ft 456 kts 122°
2026-05-04 14:54 -0.51825 102.79316 28918 ft 457 kts 122°
2026-05-04 14:54 -0.52415 102.80215 28998 ft 458 kts 122°
2026-05-04 14:55 -0.62383 102.95413 30314 ft 463 kts 122°
2026-05-04 14:55 -0.64152 102.98106 30580 ft 462 kts 122°
2026-05-04 14:56 -0.65925 103.00799 30847 ft 462 kts 122°
2026-05-04 14:56 -0.67670 103.03449 31111 ft 461 kts 122°
2026-05-04 14:56 -0.69431 103.06125 31376 ft 460 kts 122°
2026-05-04 14:56 -0.71194 103.08807 31646 ft 460 kts 122°
2026-05-04 14:57 -0.72952 103.11489 31915 ft 459 kts 122°
2026-05-04 14:57 -0.74702 103.14167 32190 ft 459 kts 122°
2026-05-04 14:57 -0.76426 103.16804 32496 ft 457 kts 122°
2026-05-04 14:57 -0.78169 103.19461 32823 ft 455 kts 122°
2026-05-04 14:58 -0.79893 103.22086 33125 ft 454 kts 122°
2026-05-04 14:58 -0.81628 103.24727 33427 ft 453 kts 122°
2026-05-04 14:58 -0.83356 103.27356 33717 ft 452 kts 122°
2026-05-04 14:58 -0.85090 103.29991 34001 ft 451 kts 122°
2026-05-04 14:59 -0.86816 103.32613 34251 ft 451 kts 122°
2026-05-04 14:59 -0.88560 103.35175 34481 ft 451 kts 127°
2026-05-04 14:59 -0.93069 103.39549 34884 ft 452 kts 140°
2026-05-04 15:00 -0.95490 103.41508 34938 ft 452 kts 140°
2026-05-04 15:00 -1.00406 103.45468 34942 ft 452 kts 140°
2026-05-04 15:01 -1.07722 103.51378 34937 ft 453 kts 140°
2026-05-04 15:01 -1.12613 103.55347 34937 ft 453 kts 140°
2026-05-04 15:02 -1.17484 103.59292 34938 ft 452 kts 140°
2026-05-04 15:02 -1.22393 103.63264 34942 ft 452 kts 140°
2026-05-04 15:03 -1.27249 103.67196 34943 ft 452 kts 140°
2026-05-04 15:03 -1.32145 103.71165 34945 ft 451 kts 140°
2026-05-04 15:04 -1.37001 103.75096 34942 ft 452 kts 140°
2026-05-04 15:04 -1.41891 103.79057 34942 ft 452 kts 140°
2026-05-04 15:05 -1.46757 103.82997 34942 ft 452 kts 140°
2026-05-04 15:05 -1.51652 103.86954 34934 ft 452 kts 140°
2026-05-04 15:06 -1.56545 103.90917 34931 ft 452 kts 140°
2026-05-04 15:07 -1.63866 103.96860 34929 ft 453 kts 140°
2026-05-04 15:07 -1.68775 104.00836 34930 ft 453 kts 140°
2026-05-04 15:08 -1.73675 104.04805 34936 ft 453 kts 140°
2026-05-04 15:08 -1.78542 104.08753 34936 ft 453 kts 140°
2026-05-04 15:09 -1.83457 104.12732 34938 ft 453 kts 140°
2026-05-04 15:09 -1.88334 104.16678 34942 ft 453 kts 140°
2026-05-04 15:10 -1.95684 104.22636 34939 ft 452 kts 140°
2026-05-04 15:11 -2.03005 104.28570 34927 ft 453 kts 140°
2026-05-04 15:11 -2.07920 104.32551 34924 ft 454 kts 140°
2026-05-04 15:12 -2.12810 104.36511 34923 ft 454 kts 140°
2026-05-04 15:12 -2.17728 104.40499 34925 ft 454 kts 140°
2026-05-04 15:13 -2.22627 104.44472 34924 ft 454 kts 140°
2026-05-04 15:13 -2.27516 104.48429 34922 ft 455 kts 140°
2026-05-04 15:14 -2.32442 104.52425 34926 ft 455 kts 140°
2026-05-04 15:14 -2.37355 104.56408 34927 ft 455 kts 140°
2026-05-04 15:15 -2.42295 104.60417 34928 ft 456 kts 140°
2026-05-04 15:15 -2.47195 104.64390 34930 ft 456 kts 140°
2026-05-04 15:16 -2.54603 104.70394 34930 ft 456 kts 140°
2026-05-04 15:17 -2.61981 104.76387 34929 ft 456 kts 140°
2026-05-04 15:17 -2.69361 104.82377 34925 ft 456 kts 140°
2026-05-04 15:18 -2.74273 104.86351 34927 ft 456 kts 140°
2026-05-04 15:19 -2.81677 104.92357 34927 ft 456 kts 140°
2026-05-04 15:19 -2.89091 104.98385 34920 ft 457 kts 140°
2026-05-04 15:20 -2.94020 105.02375 34923 ft 457 kts 140°
2026-05-04 15:20 -2.98959 105.06382 34917 ft 458 kts 140°
2026-05-04 15:21 -3.03877 105.10383 34917 ft 458 kts 140°
2026-05-04 15:22 -3.11325 105.16433 34918 ft 458 kts 140°
2026-05-04 15:22 -3.18743 105.22459 34918 ft 458 kts 140°
2026-05-04 15:23 -3.23690 105.26472 34922 ft 458 kts 140°
2026-05-04 15:23 -3.28616 105.30493 34925 ft 458 kts 139°
2026-05-04 15:24 -3.38390 105.38696 34932 ft 457 kts 139°
2026-05-04 15:25 -3.43234 105.42765 34931 ft 457 kts 139°
2026-05-04 15:26 -3.50582 105.48896 34929 ft 457 kts 139°
2026-05-04 15:26 -3.57898 105.54992 34929 ft 457 kts 139°
2026-05-04 15:27 -3.65210 105.61103 34928 ft 457 kts 139°
2026-05-04 15:28 -3.72507 105.67201 34917 ft 457 kts 139°
2026-05-04 15:29 -3.79861 105.73347 34914 ft 459 kts 139°
2026-05-04 15:30 -3.97018 105.87679 34914 ft 459 kts 139°
2026-05-04 15:31 -4.04369 105.93836 34917 ft 460 kts 139°
2026-05-04 15:32 -4.16651 106.04096 34912 ft 460 kts 139°
2026-05-04 15:34 -4.28917 106.14370 34917 ft 461 kts 139°
2026-05-04 15:34 -4.36328 106.20552 34921 ft 461 kts 139°
2026-05-04 15:35 -4.43679 106.26716 34674 ft 458 kts 139°
2026-05-04 15:35 -4.46123 106.28764 34442 ft 458 kts 139°
2026-05-04 15:36 -4.50993 106.32854 33999 ft 459 kts 139°
2026-05-04 15:36 -4.53442 106.34908 33511 ft 458 kts 139°
2026-05-04 15:36 -4.55893 106.36966 32699 ft 459 kts 139°
2026-05-04 15:37 -4.58359 106.39030 31841 ft 462 kts 139°
2026-05-04 15:37 -4.60809 106.41078 31002 ft 465 kts 139°
2026-05-04 15:37 -4.63305 106.43163 30378 ft 463 kts 139°
2026-05-04 15:37 -4.65771 106.45226 29752 ft 459 kts 139°
2026-05-04 15:38 -4.68217 106.47272 29095 ft 455 kts 139°
2026-05-04 15:38 -4.70630 106.49292 28516 ft 450 kts 138°
2026-05-04 15:38 -4.73001 106.51276 27901 ft 446 kts 138°
2026-05-04 15:38 -4.75378 106.53265 27313 ft 442 kts 138°
2026-05-04 15:39 -4.77731 106.55239 26760 ft 437 kts 138°
2026-05-04 15:39 -4.79277 106.56537 26222 ft 438 kts 138°
2026-05-04 15:39 -4.83978 106.60382 24904 ft 436 kts 144°
2026-05-04 15:40 -4.86625 106.61877 24256 ft 436 kts 154°
2026-05-04 15:40 -4.90482 106.63047 23514 ft 435 kts 167°
2026-05-04 15:40 -4.92513 106.63395 22880 ft 437 kts 168°
2026-05-04 15:40 -4.95468 106.63890 22363 ft 431 kts 168°
2026-05-04 15:41 -4.98405 106.64378 21892 ft 424 kts 168°
2026-05-04 15:41 -5.01309 106.64862 21347 ft 419 kts 168°
2026-05-04 15:41 -5.04177 106.65343 20796 ft 415 kts 168°
2026-05-04 15:41 -5.07017 106.65819 20235 ft 412 kts 168°
2026-05-04 15:42 -5.09872 106.66298 19305 ft 420 kts 168°
2026-05-04 15:42 -5.12728 106.66778 18759 ft 416 kts 169°
2026-05-04 15:42 -5.15585 106.67259 18241 ft 413 kts 168°
2026-05-04 15:42 -5.18377 106.67728 17660 ft 409 kts 169°
2026-05-04 15:43 -5.21174 106.68196 17083 ft 406 kts 169°
2026-05-04 15:43 -5.23947 106.68661 16518 ft 402 kts 169°
2026-05-04 15:43 -5.26706 106.69125 15990 ft 399 kts 169°
2026-05-04 15:43 -5.29435 106.69584 15460 ft 395 kts 168°
2026-05-04 15:44 -5.32147 106.70039 14959 ft 392 kts 169°
2026-05-04 15:44 -5.34803 106.70482 14463 ft 389 kts 169°
2026-05-04 15:44 -5.37476 106.70928 13964 ft 387 kts 169°
2026-05-04 15:44 -5.40126 106.71370 13455 ft 384 kts 169°
2026-05-04 15:45 -5.42754 106.71810 12916 ft 380 kts 168°
2026-05-04 15:45 -5.45316 106.72239 12201 ft 372 kts 169°
2026-05-04 15:45 -5.47864 106.72666 11246 ft 368 kts 169°
2026-05-04 15:45 -5.50295 106.73074 11058 ft 340 kts 169°
2026-05-04 15:46 -5.52552 106.73453 10937 ft 315 kts 168°
2026-05-04 15:46 -5.54636 106.73802 10627 ft 301 kts 169°
2026-05-04 15:46 -5.56685 106.74145 10113 ft 295 kts 168°
2026-05-04 15:46 -5.58705 106.74484 9534 ft 292 kts 168°
2026-05-04 15:47 -5.60675 106.74816 8917 ft 289 kts 168°
2026-05-04 15:47 -5.62659 106.75152 8294 ft 286 kts 168°
2026-05-04 15:47 -5.64595 106.75479 7693 ft 283 kts 168°
2026-05-04 15:47 -5.66537 106.75807 7086 ft 281 kts 168°
2026-05-04 15:48 -5.68461 106.76131 6493 ft 278 kts 168°
2026-05-04 15:48 -5.70341 106.76447 5884 ft 275 kts 168°
2026-05-04 15:48 -5.74090 106.77081 4649 ft 270 kts 167°
2026-05-04 15:49 -5.75939 106.77391 3989 ft 267 kts 167°
2026-05-04 15:49 -5.77744 106.77691 3662 ft 253 kts 168°
2026-05-04 15:49 -5.79391 106.77962 3516 ft 233 kts 167°
2026-05-04 15:49 -5.80978 106.78228 3226 ft 228 kts 167°
2026-05-04 15:50 -5.82550 106.78496 2926 ft 227 kts 167°
2026-05-04 15:50 -5.84082 106.78757 2649 ft 225 kts 168°
2026-05-04 15:50 -5.85632 106.79017 2352 ft 225 kts 168°
2026-05-04 15:50 -5.87179 106.79275 2090 ft 223 kts 168°
2026-05-04 15:51 -5.88688 106.79530 2008 ft 222 kts 168°
2026-05-04 15:51 -5.90225 106.79791 2012 ft 223 kts 168°
2026-05-04 15:51 -5.91764 106.80051 2012 ft 223 kts 168°
2026-05-04 15:51 -5.93294 106.80310 2011 ft 223 kts 168°
2026-05-04 15:52 -5.94800 106.80563 2011 ft 217 kts 168°
2026-05-04 15:52 -5.96250 106.80805 2009 ft 205 kts 168°
2026-05-04 15:52 -5.97618 106.81033 2029 ft 189 kts 168°
2026-05-04 15:52 -5.98830 106.81234 2013 ft 166 kts 167°
2026-05-04 15:53 -5.99922 106.81416 2007 ft 157 kts 167°
2026-05-04 15:53 -6.00991 106.81596 2008 ft 154 kts 167°
2026-05-04 15:53 -6.02047 106.81773 2011 ft 153 kts 167°
2026-05-04 15:53 -6.03111 106.81869 2003 ft 155 kts 183°
2026-05-04 15:54 -6.04125 106.81514 2009 ft 159 kts 211°
2026-05-04 15:54 -6.04891 106.80706 2008 ft 162 kts 240°
2026-05-04 15:54 -6.05330 106.79656 2016 ft 164 kts 248°
2026-05-04 15:54 -6.05752 106.78594 2011 ft 163 kts 247°
2026-05-04 15:55 -6.06176 106.77535 2009 ft 163 kts 247°
2026-05-04 15:55 -6.06600 106.76471 2006 ft 164 kts 247°
2026-05-04 15:55 -6.07025 106.75404 1771 ft 165 kts 247°
2026-05-04 15:55 -6.07450 106.74339 1550 ft 163 kts 247°
2026-05-04 15:56 -6.07870 106.73288 1335 ft 160 kts 246°
2026-05-04 15:56 -6.08283 106.72259 1128 ft 160 kts 247°
2026-05-04 15:56 -6.08697 106.71223 937 ft 159 kts 247°
2026-05-04 15:56 -6.09103 106.70200 748 ft 156 kts 245°
2026-05-04 15:57 -6.09510 106.69189 507 ft 155 kts 245°
2026-05-04 15:57 -6.09893 106.68201 315 ft 152 kts 247°
2026-05-04 15:57 -6.10275 106.67221 125 ft 150 kts 246°
2026-05-04 15:57 -6.10657 106.66276 34 ft 133 kts 248°
2026-05-04 15:58 -6.10932 106.65591 38 ft 82 kts 249°
2026-05-04 15:58 -6.11101 106.65160 35 ft 56 kts 248°
2026-05-04 15:58 -6.11204 106.64909 36 ft 28 kts 243°
2026-05-04 15:58 -6.11268 106.64827 37 ft 19 kts 228°
2026-05-04 15:59 -6.11368 106.64740 37 ft 19 kts 213°
2026-05-04 15:59 -6.11480 106.64712 38 ft 17 kts 154°
2026-05-04 15:59 -6.11547 106.64763 39 ft 11 kts 96°
2026-05-04 15:59 -6.11518 106.64839 38 ft 13 kts 68°
2026-05-04 16:00 -6.11485 106.64923 38 ft 14 kts 69°
2026-05-04 16:00 -6.11445 106.65030 39 ft 17 kts 69°
2026-05-04 16:00 -6.11435 106.65110 39 ft 8 kts 127°
2026-05-04 16:00 -6.11497 106.65139 39 ft 11 kts 157°
2026-05-04 16:01 -6.11578 106.65145 39 ft 15 kts 209°
2026-05-04 16:01 -6.11668 106.65049 39 ft 21 kts 228°
2026-05-04 16:01 -6.11775 106.64963 40 ft 15 kts 204°
2026-05-04 16:01 -6.11876 106.64991 38 ft 17 kts 163°
2026-05-04 16:02 -6.11914 106.65062 37 ft 13 kts 75°
2026-05-04 16:02 -6.11872 106.65168 38 ft 18 kts 68°
2026-05-04 16:02 -6.11922 106.65266 38 ft 6 kts 258°
2026-05-04 16:03 -6.11954 106.65243 38 ft 5 kts 211°
2026-05-04 16:03 -6.11966 106.65236 38 ft 0 kts 208°